Newburgh, NY

7:45 AM EDT on March 23, 2017 (GMT -0400)
Stewart International

Weather History for KSWF - October, 2012

Change the Weather History Date:

Wednesday, October 10, 2012

  Actual Average Record
Temperature  
Mean Temperature 56 °F -  
Max Temperature 62 °F 61 °F 80 °F (1997)
Min Temperature 48 °F 42 °F 24 °F (1980)
Degree Days  
Heating Degree Days 9    
Growing Degree Days 6 (Base 50)    
Moisture  
Dew Point 50 °F    
Average Humidity 87    
Maximum Humidity 100    
Minimum Humidity 63    
Precipitation  
Precipitation 0.00 in - - ()
Sea Level Pressure  
Sea Level Pressure 29.94 in    
Wind  
Wind Speed 8 mph (SW)    
Max Wind Speed 17 mph    
Max Gust Speed 29 mph    
Visibility 8 miles    
Events      
Averages and records for this station are not official NWS values.
T = Trace of Precipitation, MM = Missing Value Source: NWS Daily Summary

Daily Weather History Graph

Daily Weather History Graph

Search for Another Location

Airport or City:

Trip Planner

Search our weather history database for the weather conditions in past years. The results will help you decide how hot, cold, wet, or windy it might be!

Date:

Astronomy

Oct. 10, 2012 Rise Set
Actual Time 7:03 AM EDT 6:22 PM EDT
Civil Twilight 6:35 AM EDT 6:50 PM EDT
Nautical Twilight 6:03 AM EDT 7:22 PM EDT
Astronomical Twilight 5:31 AM EDT 7:54 PM EDT
Moon 1:33 AM EDT (10/10) 3:26 PM EDT (10/10)
Length of Visible Light 12h 14m
Length of Day
11h 19m
Waning Crescent, 27% of the Moon is Illuminated
Oct 10
Waning Crescent
Oct 15
New
Oct 21
First Quarter
Oct 29
Full
Nov 6
Last Quarter

Hourly Weather History & Observations

Time (EDT) Temp. Dew Point Humidity Pressure Visibility Wind Dir Wind Speed Gust Speed Precip Events Conditions
12:45 AM 51.8 °F 50.0 °F 94% 30.09 in 10.0 mi ESE 9.2 mph - N/A   Overcast
1:45 AM 51.8 °F 50.0 °F 94% 30.09 in 10.0 mi ESE 6.9 mph - N/A   Overcast
2:45 AM 51.8 °F 50.0 °F 94% 30.07 in 10.0 mi East 5.8 mph - N/A   Overcast
3:45 AM 51.8 °F 50.0 °F 94% 30.04 in 10.0 mi East 8.1 mph - N/A   Overcast
4:45 AM 53.6 °F 50.0 °F 88% 30.03 in 10.0 mi ESE 8.1 mph - N/A   Overcast
5:45 AM 51.8 °F 50.0 °F 94% 30.02 in 8.0 mi ESE 6.9 mph - N/A   Overcast
6:15 AM 51.8 °F 50.0 °F 94% 30.01 in 6.0 mi East 5.8 mph - N/A   Overcast
6:55 AM 51.8 °F 50.0 °F 94% 30.00 in 5.0 mi East 5.8 mph - N/A   Overcast
7:45 AM 51.8 °F 50.0 °F 94% 30.00 in 2.0 mi Calm Calm - N/A   Overcast
8:45 AM 51.8 °F 51.8 °F 100% 29.98 in 3.0 mi East 6.9 mph - N/A   Overcast
9:45 AM 53.6 °F 51.8 °F 94% 29.95 in 2.0 mi Calm Calm - N/A   Overcast
10:45 AM 53.6 °F 53.6 °F 100% 29.92 in 2.0 mi Variable 4.6 mph - N/A   Overcast
11:45 AM 53.6 °F 53.6 °F 100% 29.91 in 2.0 mi West 6.9 mph - N/A   Light Drizzle
12:45 PM 55.4 °F 53.6 °F 94% 29.98 in 2.0 mi West 6.9 mph - N/A   Light Drizzle
2:20 PM 57.2 °F 55.4 °F 94% 29.84 in 6.0 mi SW 10.4 mph - N/A   Mostly Cloudy
2:45 PM 57.2 °F 55.4 °F 94% 29.82 in 10.0 mi SW 6.9 mph - N/A   Mostly Cloudy
3:45 PM 62.6 °F 55.4 °F 77% 29.80 in 10.0 mi WSW 11.5 mph - N/A   Mostly Cloudy
4:45 PM 62.6 °F 51.8 °F 68% 29.80 in 10.0 mi West 11.5 mph - N/A   Mostly Cloudy
5:45 PM 59.0 °F 46.4 °F 63% 29.81 in 10.0 mi West 11.5 mph - N/A   Scattered Clouds
6:45 PM 55.4 °F 46.4 °F 72% 29.82 in 10.0 mi WNW 9.2 mph - N/A   Scattered Clouds
8:45 PM 57.2 °F 46.4 °F 67% 29.86 in 10.0 mi West 11.5 mph - N/A   Mostly Cloudy
9:45 PM 53.6 °F 42.8 °F 67% 29.91 in 10.0 mi NW 17.3 mph 28.8 mph N/A   Mostly Cloudy
10:45 PM 50.0 °F 41.0 °F 71% 29.94 in 20.0 mi WNW 11.5 mph 20.7 mph N/A   Mostly Cloudy
11:45 PM 48.2 °F 41.0 °F 76% 29.96 in 20.0 mi NW 12.7 mph 18.4 mph N/A   Scattered Clouds